Regional Weather Roundup
Issued by NWS Newport/Morehead, NC

Current Version | Previous Version | Text Only | Print | Product List | Glossary On
Versions: 1 2 3 4 5 6 7 8 9 10 11 12 13 14 15 16 17 18 19 20 21 22 23 24 25 26 27 28 29 30 31 32 33 34 35 36 37 38 39 40 41 42 43 44 45 46 47 48 49 50
000
ASUS42 KMHX 300522
RWRMHX
WEATHER ROUNDUP FOR EASTERN NORTH CAROLINA
NATIONAL WEATHER SERVICE NEWPORT/MOREHEAD CITY NC
100 AM EDT WED JUL 30 2014

NOTE: "FAIR" INDICATES FEW OR NO CLOUDS BELOW 12,000 FEET
WITH NO SIGNIFICANT WEATHER AND/OR OBSTRUCTIONS TO VISIBILITY

NCZ015>017-031-032-045>047-102-103-300600-
NORTH COAST

CITY           SKY/WX    TMP DP  RH WIND       PRES   REMARKS
EDENTON        CLEAR     66  64  90 CALM      30.00S
ELIZABETH CITY CLEAR     69  62  78 E5        30.00F
KITTY HAWK     CLEAR     73  60  64 E3        29.99S
MANTEO         NOT AVBL

$$

NCZ045>047-081-094-103-104-300600-
CENTRAL COAST

CITY           SKY/WX    TMP DP  RH WIND       PRES   REMARKS
FRISCO         CLOUDY    75  64  68 E6        29.98F
SWANQUARTER      N/A     70 N/A N/A NE2       29.94F

$$

NCZ095-097-098-100-101-300600-
SOUTHERN COAST

CITY           SKY/WX    TMP DP  RH WIND       PRES   REMARKS
BEAUFORT       PTCLDY    75  66  73 NE5       29.98S
CEDAR ISLAND     N/A     77 N/A N/A NE10      30.00F
JACKSONVILLE   PTCLDY    73  68  84 E7        29.98F
NEWPORT        NOT AVBL
PINEY ISLAND   MOCLDY    78  67  68 NE9       29.97F
WILMINGTON     CLOUDY    70  69  97 CALM      29.97F


$$

NCZ011>013-027>030-043-044-078>080-089-090>093-098-300600-
COASTAL PLAIN

CITY           SKY/WX    TMP DP  RH WIND       PRES   REMARKS
AHOSKIE        CLEAR     62  59  91 CALM      30.01S
CLINTON        CLEAR     68  63  83 CALM      29.99F
ELIZABETHTOWN  PTCLDY    68  64  86 CALM      29.98F
GOLDSBORO      CLEAR     65  65  97 SE2       29.98S
GREENVILLE     CLEAR     68  64  88 CALM      30.01F
HAVELOCK       PTCLDY    72  68  87 SE3       29.99F
KENANSVILLE    CLEAR     64  62  93 CALM      30.00S
KINSTON        CLEAR     69  64  82 CALM      30.00F
NEW BERN       MOCLDY    74  65  73 E5        30.00F
RICHLANDS      CLEAR     66  63  88 CALM      29.98F
ROANOKE RAPIDS NOT AVBL
ROCKY MOUNT    CLEAR     66  60  81 CALM      30.00S
WASHINGTON     CLEAR     67  64  88 CALM      30.00F
WHITEVILLE     CLEAR     71  66  85 CALM      29.97S

$$

AMZ130-135-150-152-154-156-158-170-250-252-270-ANZ085-086-088-633-658-670-300600-
MARINE OBSERVATIONS

STATION/POSITION TIME  TEMP    WIND        PRES    WAVE   SWELL
                       AIR SEA DIR/SP/G            HT/PER HT/PER
                 (UTC) (F)     (DEG/KT/KT) (MB)    (FT/S) (FT/S)
CHESAPEAKE LIGHT NOT AVBL
BUOY 44014       0500   75 78   40/  6/  8 1015.2    2/ 8   2/ 8
DUCK             0500   74 74   60/  9/ 11 1014.9
2E DUCK          0500                        N/A     2/17
OREGON INLET     0500   74 80   40/  7/ 10 1015.3
BUOY 44095       0500      78                N/A     3/ 8
20E OREGON INLET NOT AVBL
HATTERAS CG      0500   76 81   40/  8/ 12 1015.3
DIAMOND BUOY     0500          VRB 14/ 16  1014.4    3/ 8   2/ 8
CAPE LOOKOUT     0500   78      60/ 13/ 15 1014.7
BEAUFORT LAB     0500   75 82   20/  4/  5 1014.5
30 SE NEW RIVER  0500   78 81   70/ 14/ 16 1014.8    3/ 7   2/ 7
5 SE WRIGHTSVILL 0500   74 82   80/ 12/ 14   N/A
BUOY 41002       0446   81 81  220/ 17/ 21 1014.0    6/ 7   2/15
BUOY 41004       0500   82 84   50/  4/  6 1013.6    2/ 8   2/ 8

$$



USA.gov is the U.S. government's official web portal to all federal, state and local government web resources and services.